Tacoma Narrows, WA
on Tuesday, November 20, 2012

Tuesday
Previous Day Next Day
Daily Summary
 ActualAverageRecord
Temperature
Mean Temperature °F °F  
Max Temperature 51°F 47°F 59°F (2002)
Min Temperature 42°F 39°F 30°F (2011)
Degree Days
Heating Degree Days 18    
Moisture
Dew Point 42°F   
Average Humidity 82    
Maximum Humidity 93    
Minimum Humidity 66    
Precipitation
Precipitation 0.17 in in in ()
Wind
Wind Speed 5 mph   
Max Wind Speed 17 mph   
Max Gust Speed 39 mph   
Visibility 9 miles   
Events Rain   
Averages and records for this station are not official NWS values.
Key: T is trace of precipitation, MM is missing value
Source: NWS Daily Summary
Seasonal Weather Averages
Time(PST)TemperatureDew PointHumidity Pressure Visibility Wind DirectionWind SpeedGust SpeedPrecipitationEvents Conditions
12:53 AM 48.9°F 46.0°F 90% 29.70 in 10.0 miles SSE 3.5 mph - N/A   Mostly Cloudy
1:53 AM 50.0°F 46.0°F 86% 29.69 in 10.0 miles South 5.8 mph - N/A   Overcast
2:53 AM 48.9°F 45.0°F 86% 29.69 in 5.0 miles SW 5.8 mph - 0.04 in Rain Rain
3:53 AM 48.0°F 45.0°F 89% 29.68 in 10.0 miles Calm Calm - 0.01 in   Scattered Clouds
4:53 AM 46.0°F 43.0°F 89% 29.65 in 10.0 miles Calm Calm - N/A   Clear
5:53 AM 46.9°F 44.1°F 90% 29.65 in 10.0 miles Calm Calm - N/A   Mostly Cloudy
6:53 AM 46.0°F 43.0°F 89% 29.63 in 10.0 miles Calm Calm - N/A   Scattered Clouds
7:53 AM 42.1°F 39.9°F 92% 29.60 in 8.0 miles Calm Calm - N/A   Clear
8:53 AM 46.0°F 44.1°F 93% 29.58 in 10.0 miles Calm Calm - N/A   Scattered Clouds
9:53 AM 46.0°F 44.1°F 93% 29.54 in 8.0 miles Calm Calm - 0.00 in Rain Light Rain
10:53 AM 46.4°F 44.6°F 93% 29.56 in 2.0 miles ESE 3.5 mph - N/A Rain Rain
11:06 AM 46.4°F 44.6°F 93% 29.56 in 3.0 miles Calm Calm - 0.02 in Rain Light Rain
11:53 AM 46.9°F 44.1°F 90% 29.55 in 10.0 miles SE 4.6 mph - 0.03 in   Mostly Cloudy
12:53 PM 51.1°F 45.0°F 80% 29.56 in 10.0 miles South 13.8 mph 19.6 mph 0.00 in Rain Light Rain
1:44 PM 48.2°F 42.8°F 82% 29.60 in 2.0 miles SSW 15.0 mph 39.1 mph 0.07 in Rain Light Rain
1:53 PM 48.0°F 43.0°F 83% 29.60 in 6.0 miles SSW 17.3 mph 23.0 mph 0.09 in Rain Light Rain
2:53 PM 50.0°F 44.1°F 80% 29.63 in 10.0 miles South 11.5 mph 19.6 mph 0.00 in   Mostly Cloudy
3:53 PM 50.0°F 42.1°F 74% 29.66 in 10.0 miles South 11.5 mph - N/A   Overcast
4:53 PM 50.0°F 41.0°F 71% 29.66 in 10.0 miles South 11.5 mph - N/A   Mostly Cloudy
5:53 PM 48.9°F 39.9°F 71% 29.66 in 10.0 miles South 9.2 mph - N/A   Mostly Cloudy
6:53 PM 48.9°F 39.9°F 71% 29.67 in 10.0 miles South 17.3 mph 29.9 mph N/A   Mostly Cloudy
7:53 PM 48.9°F 39.9°F 71% 29.67 in 10.0 miles South 9.2 mph - 0.00 in   Overcast
8:53 PM 46.9°F 39.9°F 77% 29.66 in 10.0 miles South 5.8 mph - N/A   Scattered Clouds
9:53 PM 48.0°F 37.9°F 68% 29.64 in 10.0 miles Calm Calm - N/A   Overcast
10:53 PM 46.9°F 37.9°F 71% 29.61 in 10.0 miles Calm Calm - N/A   Overcast
11:53 PM 48.0°F 37.0°F 66% 29.56 in 10.0 miles Calm Calm - N/A   Overcast
Moon Phase
Nov. 20 Nov. 28 Dec. 06 Dec. 13 Dec. 20
Sunrise:07:22 AM (PST) Moon Rise:12:44 PM (PST)11/20
Sunset:04:29 PM (PST) Moon Set:No Moon Set/

Copyright © 2014 The Weather Underground, Inc.